Dewpoint
68 71 77 76 75 75 75 77 77 76 75 75 75 75 75 75 75 74 74 75 75 75 74 74 74 74 74 74 75 74 74 74 75 74 75 74 73 74 75 74 71 70 74
67 71 77 77 75 75 76 77 78 77 75 75 75 75 75 74 74 74 74 75 75 75 74 73 73 74 74 74 73 74 74 74 74 74 73 72 74 73 73 72 72 71 74
67 69 73 76 77 76 76 76 77 76 76 76 75 75 75 74 74 74 74 73 74 74 73 73 73 73 74 74 73 72 73 73 73 73 71 68 72 73 72 72 73 73 73
67 68 72 76 77 76 76 75 75 75 75 75 75 75 75 75 75 74 74 73 73 73 72 72 72 73 73 75 74 73 74 73 72 72 69 68 62 73 72 72 72 72 72
67 68 72 76 77 76 75 75 75 75 74 74 74 74 74 74 74 74 73 73 73 72 72 72 72 73 73 73 71 73 72 72 70 69 70 70 67 69 71 71 71 71 71
68 67 74 76 75 73 75 75 74 74 74 73 73 74 74 73 73 72 71 72 72 72 72 73 73 73 73 73 73 73 71 71 69 68 66 69 68 70 66 70 71 71 71
67 67 72 75 72 74 74 73 72 73 68 72 72 71 70 73 72 70 72 72 72 72 73 73 73 73 73 73 72 71 70 71 69 68 65 67 68 70 68 70 70 70 71
66 66 72 73 73 72 72 72 72 67 70 72 71 70 70 73 72 71 72 72 72 73 73 73 73 72 73 74 73 72 72 72 68 68 65 66 72 70 71 70 70 70 70
66 71 73 72 73 74 72 72 71 71 71 71 73 72 71 73 71 71 72 73 73 73 73 72 72 72 72 72 72 72 70 71 71 71 66 65 71 71 71 71 70 70 70
69 69 73 74 74 72 71 72 72 71 71 72 71 71 70 71 72 72 73 73 73 72 71 72 72 73 73 73 72 71 70 69 68 70 69 66 72 71 72 71 71 71 70
67 68 68 72 74 72 72 72 72 72 72 72 71 71 71 70 69 68 72 73 73 72 72 72 73 73 73 72 71 71 71 66 68 67 67 71 71 70 73 72 72 71 70
67 69 69 71 73 72 69 72 74 73 74 73 73 73 75 71 68 67 70 72 71 72 72 72 73 74 72 70 70 71 67 68 66 67 67 70 71 71 72 72 72 72 71
66 67 70 71 73 71 75 76 76 72 74 73 71 74 72 70 72 65 65 67 67 73 67 71 73 70 71 70 68 68 70 67 66 66 68 71 71 71 71 72 73 73 73
65 67 68 71 70 70 68 69 71 74 73 71 70 71 70 70 68 67 65 65 70 66 70 70 69 70 69 71 69 69 70 66 66 65 69 71 71 72 71 71 72 73 72
66 67 66 69 72 72 72 70 72 72 73 69 72 72 73 68 68 65 66 67 70 69 68 70 71 70 70 69 70 70 69 69 68 66 66 72 72 73 72 72 72 73 73
66 66 66 68 71 71 72 73 74 71 70 74 73 72 71 70 68 65 67 66 69 69 69 70 71 70 68 66 67 70 70 70 70 69 65 70 74 74 73 72 72 73 74
66 67 67 69 70 70 70 71 74 69 68 68 70 71 71 70 71 71 68 69 69 72 72 71 72 70 65 67 67 69 70 70 68 68 64 67 71 73 73 73 73 73 73
66 68 69 67 68 69 72 72 75 73 69 69 72 70 70 70 72 72 71 69 70 71 70 71 70 66 68 70 69 69 70 69 69 68 64 63 64 66 72 73 73 73 73
66 68 69 70 70 71 72 72 73 70 69 69 69 69 71 70 71 71 70 71 73 70 70 69 69 68 68 68 68 69 70 68 68 65 65 64 64 62 64 74 75 74 73
66 69 70 70 72 72 72 73 72 68 71 68 70 69 71 70 71 72 69 72 72 69 70 70 71 69 68 68 64 67 69 68 68 67 66 63 65 67 64 68 70 70 75
66 68 70 71 73 73 71 70 69 66 67 67 69 70 71 71 72 73 69 71 74 70 72 73 71 71 68 70 65 66 67 69 68 66 66 65 66 65 65 67 66 66 70
65 68 71 72 72 71 72 73 68 67 66 66 68 69 70 72 73 72 74 70 72 69 74 74 73 68 68 68 65 63 61 66 67 67 68 67 66 64 64 66 66 68 67
65 68 70 72 72 72 72 71 69 68 67 66 67 69 69 72 71 73 72 71 73 72 70 75 72 72 65 69 71 65 61 60 63 67 70 68 69 68 65 65 66 67 69
65 68 70 72 72 72 72 70 70 66 65 65 65 66 68 71 71 71 72 72 76 70 72 71 71 71 71 67 69 68 68 66 65 68 66 67 68 68 69 69 66 67 69
65 67 69 72 73 72 72 71 68 68 64 65 65 70 72 72 72 70 72 74 74 70 73 73 73 73 71 67 67 68 69 68 68 64 62 63 66 66 66 70 69 68 69
65 67 68 72 72 72 72 71 70 69 67 65 66 69 66 67 68 72 72 74 74 72 74 71 72 73 72 71 68 68 66 68 70 72 69 68 65 67 66 67 69 69 70
Lifted_Index
-3 -4 -5 -6 -5 -5 -5 -5 -5 -5 -4 -4 -4 -4 -4 -4 -4 -5 -5 -6 -6 -6 -5 -5 -5 -6 -6 -6 -7 -7 -7 -7 -7 -7 -7 -6 -6 -6 -7 -6 -6 -6 -7
-3 -4 -5 -6 -5 -5 -5 -5 -5 -5 -4 -4 -4 -4 -4 -4 -4 -5 -5 -5 -6 -6 -5 -5 -5 -6 -6 -6 -6 -6 -6 -7 -7 -6 -6 -5 -5 -6 -6 -6 -6 -6 -7
-3 -4 -5 -5 -5 -5 -5 -5 -5 -5 -4 -4 -4 -4 -4 -4 -4 -5 -5 -5 -5 -6 -5 -5 -6 -6 -6 -6 -6 -6 -6 -6 -6 -5 -4 -4 -4 -5 -5 -5 -5 -6 -6
-3 -3 -4 -5 -5 -5 -5 -5 -5 -5 -4 -4 -4 -4 -4 -4 -4 -5 -5 -5 -5 -5 -5 -5 -6 -6 -6 -6 -6 -5 -5 -5 -5 -4 -3 -3 -3 -4 -4 -4 -4 -5 -5
-3 -3 -4 -5 -5 -5 -5 -5 -4 -4 -4 -4 -4 -4 -4 -4 -4 -4 -5 -5 -5 -5 -5 -5 -6 -6 -6 -6 -5 -5 -5 -4 -3 -3 -3 -3 -3 -3 -3 -3 -4 -4 -5
-2 -3 -4 -4 -4 -4 -4 -4 -4 -4 -3 -3 -3 -3 -3 -3 -3 -4 -4 -5 -5 -5 -5 -5 -6 -6 -6 -5 -5 -4 -4 -3 -2 -2 -3 -3 -3 -2 -1 -2 -3 -3 -4
-3 -3 -4 -4 -3 -3 -3 -3 -3 -2 -2 -3 -3 -2 -2 -3 -2 -3 -4 -4 -4 -4 -5 -5 -6 -6 -6 -5 -4 -4 -3 -3 -2 -2 -2 -3 -2 -1 -1 -1 -2 -3 -3
-3 -3 -4 -4 -3 -3 -3 -2 -2 -1 -1 -2 -2 -2 -2 -2 -2 -2 -4 -4 -4 -5 -5 -5 -5 -5 -5 -5 -4 -3 -3 -3 -2 -2 -2 -2 -2 -2 -1 -1 -1 -2 -2
-3 -3 -4 -4 -4 -3 -2 -2 -1 -1 -1 -2 -2 -2 -2 -2 -2 -3 -3 -4 -4 -5 -5 -5 -5 -5 -5 -5 -4 -3 -3 -3 -3 -3 -3 -2 -2 -2 -1 -1 -1 -2 -2
-3 -3 -4 -4 -4 -3 -2 -2 -1 -1 -2 -2 -2 -2 -2 -2 -2 -2 -3 -4 -4 -5 -4 -5 -5 -5 -4 -4 -4 -4 -3 -3 -3 -3 -3 -2 -2 -2 -2 -2 -1 -1 -1
-2 -3 -3 -4 -4 -3 -2 -2 -2 -2 -2 -2 -2 -2 -1 -2 -2 -2 -3 -4 -4 -4 -4 -4 -4 -4 -4 -4 -4 -3 -3 -3 -3 -3 -2 -2 -2 -2 -2 -2 -2 -2 -1
-2 -2 -3 -3 -3 -3 -3 -3 -3 -2 -2 -2 -2 -2 -2 -1 -1 -1 -2 -3 -4 -4 -4 -4 -4 -4 -4 -4 -4 -3 -3 -3 -2 -2 -2 -2 -2 -2 -2 -2 -3 -2 -2
-2 -2 -3 -3 -3 -3 -3 -3 -3 -3 -2 -2 -2 -2 -2 -1 -1 -1 -1 -2 -3 -3 -4 -4 -4 -4 -4 -4 -4 -4 -3 -2 -2 -2 -2 -1 -2 -2 -2 -2 -3 -3 -3
-2 -3 -3 -3 -3 -3 -3 -3 -3 -3 -2 -2 -2 -2 -2 -2 -1 -1 -1 -2 -2 -3 -4 -4 -4 -4 -4 -4 -4 -4 -4 -3 -2 -2 -1 -1 -2 -3 -3 -3 -3 -3 -3
-3 -3 -3 -3 -3 -3 -3 -3 -3 -2 -2 -2 -2 -2 -2 -2 -2 -1 -1 -2 -3 -3 -4 -4 -5 -5 -4 -4 -4 -4 -4 -3 -3 -2 -2 -2 -2 -3 -3 -3 -3 -3 -3
-3 -3 -3 -3 -3 -3 -3 -3 -3 -2 -2 -2 -2 -2 -2 -2 -2 -2 -2 -2 -3 -4 -4 -4 -5 -4 -4 -3 -3 -4 -4 -4 -3 -2 -2 -2 -3 -3 -3 -3 -3 -3 -4
-3 -3 -3 -3 -3 -3 -3 -3 -3 -2 -1 -1 -2 -2 -2 -2 -2 -2 -3 -3 -4 -4 -4 -4 -4 -4 -3 -3 -4 -4 -5 -4 -4 -3 -2 -2 -2 -3 -3 -3 -3 -3 -4
-3 -3 -3 -3 -3 -3 -3 -3 -3 -2 -1 -1 -2 -2 -2 -2 -3 -3 -3 -4 -4 -4 -4 -4 -4 -3 -4 -4 -5 -5 -5 -5 -4 -3 -1 -1 -1 -2 -2 -3 -3 -3 -3
-3 -3 -3 -3 -3 -3 -3 -3 -3 -2 -1 -1 -1 -2 -2 -2 -3 -3 -4 -4 -5 -4 -4 -4 -4 -3 -4 -4 -5 -5 -5 -5 -4 -3 -2 -1 -1 -1 -1 -2 -3 -3 -3
-3 -4 -4 -3 -3 -3 -3 -3 -2 -2 -1 -1 -1 -2 -2 -3 -3 -4 -4 -5 -5 -4 -4 -4 -4 -4 -4 -4 -4 -5 -5 -5 -4 -4 -3 -2 -1 -1 -1 -2 -2 -2 -3
-3 -3 -4 -4 -3 -3 -3 -3 -2 -2 -1 -1 -1 -2 -2 -3 -4 -4 -4 -5 -5 -5 -5 -5 -4 -4 -4 -4 -4 -4 -4 -5 -4 -4 -4 -3 -2 -2 -2 -2 -2 -2 -2
-3 -4 -4 -4 -3 -3 -3 -3 -2 -2 -1 -1 -1 -2 -2 -3 -4 -4 -4 -4 -5 -5 -5 -5 -5 -5 -5 -4 -4 -3 -4 -4 -4 -4 -4 -4 -3 -3 -2 -2 -2 -2 -2
-3 -4 -4 -4 -3 -3 -3 -2 -2 -1 -1 -1 -2 -2 -2 -3 -4 -4 -4 -4 -5 -5 -5 -5 -6 -5 -5 -4 -4 -4 -3 -4 -4 -4 -5 -4 -4 -4 -3 -2 -2 -2 -2
-4 -4 -4 -4 -4 -3 -3 -3 -2 -2 -1 -1 -2 -2 -3 -3 -4 -4 -4 -5 -5 -5 -5 -5 -6 -6 -5 -4 -4 -4 -4 -4 -4 -4 -4 -4 -4 -4 -4 -4 -3 -3 -3
-4 -4 -4 -4 -4 -4 -3 -3 -3 -2 -2 -2 -2 -3 -4 -4 -4 -4 -5 -5 -5 -5 -5 -6 -6 -6 -5 -5 -4 -4 -4 -4 -5 -5 -4 -4 -4 -4 -4 -4 -4 -4 -4
-4 -4 -4 -4 -4 -4 -3 -3 -3 -2 -2 -2 -3 -3 -4 -4 -4 -4 -5 -5 -5 -5 -5 -6 -6 -6 -5 -5 -4 -4 -4 -5 -5 -5 -5 -4 -5 -5 -4 -4 -5 -4 -4